Back to catalog

SHIJIAN 6 02A

SJ-6 02A

AliveScienceSSO
NORAD 29505·PAYLOAD·🇨🇳 China

Launched Oct 23, 2006 from Taiyuan Satellite Launch Center

Loading…

Next Passes (next 24 hours)

TLE

FreshSource: Space-Track

Epoch: Sep 14, 2026, 13:52 UTC

1 29505U 06046A   26257.57785608  .00004443  00000-0  22323-3 0  9995
2 29505  97.6282 299.3349 0003048 160.1150 200.0203 15.17801536 85822

Track SHIJIAN 6 02A in real time with AllMySat

Download on the App Store